This demonstration page uses our WeatherBlox Daily Observations layout. Learn more.

Left ArrowRight Arrow

34.02893, -84.19858

Hourly Observations for December 20, 2018

Temp ( °F °C ) Dew Point ( °F °C ) Humidity (%) Winds ( mph kmh ) Pressure ( in mb ) Visibility ( mi km ) Precip ( " mm )
12:53 am 00:53 Mostly Cloudy with Light Rain 49 9.4 39 3.9 69 69 ENE 7 11 29.93 1014 8 13 0.00 0.03
1:53 am 01:53 Cloudy 49 9.4 39 3.9 69 69 VRB 5 7 29.92 1013 9 14 0.00 0.03
2:43 am 02:43 Cloudy 48 8.9 40 4.4 74 74 VRB 7 11 29.88 1012 9 14 0.00 0.00
2:53 am 02:53 Cloudy 48 8.9 40 4.4 74 74 VRB 7 11 29.87 1012 9 14 0.00 0.00
3:53 am 03:53 Cloudy 48 8.9 41 5 77 77 VRB 5 7 29.85 1011 8 13 0.00 0.00
4:53 am 04:53 Cloudy with Light Rain 46 7.8 43 6.1 89 89 VRB 6 9 29.84 1011 2 3 0.00 0.03
5:00 am 05:00 Cloudy with Light Rain 46 7.8 43 6.1 89 89 VRB 5 7 29.83 1010 2 3 0.01 0.25
5:10 am 05:10 Cloudy with Light Rain 46 7.8 44 6.7 93 93 VRB 5 7 29.83 1010 3 4 0.02 0.51
5:25 am 05:25 Cloudy with Light Rain 46 7.8 44 6.7 93 93 ENE 6 9 29.83 1010 4 6 0.04 1.02
5:53 am 05:53 Cloudy with Rain 45 7.2 44 6.7 97 97 ENE 5 7 29.82 1010 2 3 0.11 2.79
6:14 am 06:14 Cloudy with Rain 45 7.2 43 6.1 93 93 ENE 7 11 29.80 1009 2 3 0.07 1.78
6:35 am 06:35 Cloudy with Light Rain 44 6.7 43 6.1 96 96 ENE 8 13 29.80 1009 3 5 0.11 2.79
6:53 am 06:53 Cloudy with Light Rain 44 6.7 43 6.1 96 96 E 7 11 29.80 1009 3 5 0.12 3.05
7:00 am 07:00 Cloudy with Light Rain 44 6.7 43 6.1 96 96 VRB 6 9 29.77 1008 3 5 0.01 0.25
7:28 am 07:28 Cloudy with Rain 44 6.7 43 6.1 96 96 VRB 5 7 29.77 1008 2 3 0.06 1.52
7:53 am 07:53 Cloudy with Rain 44 6.7 43 6.1 96 96 ENE 10 17 29.78 1009 3 4 0.14 3.56
7:59 am 07:59 Cloudy with Rain 44 6.7 43 6.1 96 96 ENE 3 6 29.77 1008 3 4 0.02 0.51
8:31 am 08:31 Cloudy with Light Rain 45 7.2 44 6.7 97 97 VRB 7 11 29.74 1007 2 3 0.07 1.78
8:53 am 08:53 Cloudy with Rain 45 7.2 43 6.1 93 93 VRB 7 11 29.74 1007 1 2 0.14 3.56
9:00 am 09:00 Cloudy with Rain 44 6.7 43 6.1 96 96 VRB 7 11 29.71 1006 1 2 0.02 0.51
9:53 am 09:53 Cloudy with Light Rain 45 7.2 44 6.7 97 97 E 7 11 29.73 1007 2 3 0.12 3.05
10:53 am 10:53 Cloudy with Light Rain 45 7.2 44 6.7 97 97 VRB 6 9 29.67 1005 2 3 0.11 2.79
11:00 am 11:00 Cloudy with Light Rain 45 7.2 44 6.7 97 97 ENE 8 13 29.68 1005 3 4 0.01 0.25
11:18 am 11:18 Cloudy with Light Rain 45 7.2 44 6.7 97 97 ENE 8 13 29.65 1004 3 5 0.03 0.76
11:53 am 11:53 Cloudy with Light Rain 46 7.8 45 7.2 96 96 VRB 5 7 29.60 1003 3 4 0.07 1.78
12:53 pm 12:53 Cloudy with Light Rain 47 8.3 46 7.8 97 97 VRB 6 9 29.51 999 3 4 0.08 2.03
1:53 pm 13:53 Cloudy with Light Rain 48 8.9 47 8.3 96 96 ENE 3 6 29.48 998 3 4 0.05 1.27
2:00 pm 14:00 Cloudy with Light Rain 48 8.9 47 8.3 96 96 VRB 5 7 29.50 999 1 2 0.00 0.03
2:30 pm 14:30 Cloudy with Light Rain 48 8.9 48 8.9 100 100 Calm 29.47 998 1 1 0.02 0.51
2:46 pm 14:46 Cloudy with Mist and Fog 48 8.9 48 8.9 100 100 ENE 5 7 29.47 998 1 2 0.02 0.51
2:53 pm 14:53 Cloudy with Mist and Fog 49 9.4 48 8.9 97 97 ENE 5 7 29.45 997 1 2 0.02 0.51
3:16 pm 15:16 Cloudy with Light Rain 49 9.4 48 8.9 97 97 WSW 3 6 29.50 999 1 1 0.01 0.25
3:23 pm 15:23 Cloudy with Light Rain 49 9.4 48 8.9 97 97 W 3 6 29.50 999 1 2 0.02 0.51
3:53 pm 15:53 Cloudy with Light Rain 49 9.4 48 8.9 97 97 WNW 3 6 29.47 998 2 2 0.06 1.52
4:06 pm 16:06 Cloudy with Light Rain 49 9.4 48 8.9 97 97 WNW 3 6 29.50 999 3 5 0.01 0.25
4:23 pm 16:23 Cloudy with Light Rain 49 9.4 48 8.9 97 97 NW 3 6 29.50 999 2 2 0.02 0.51
4:53 pm 16:53 Cloudy with Light Rain 49 9.4 48 8.9 97 97 NW 5 7 29.45 997 2 2 0.02 0.51
5:53 pm 17:53 Cloudy with Mist and Fog 49 9.4 48 8.9 97 97 Calm 29.47 998 3 5 0.01 0.25
6:53 pm 18:53 Cloudy 49 9.4 48 8.9 97 97 Calm 29.46 998 7 11 0.00 0.00
7:44 pm 19:44 Cloudy with Mist and Fog 49 9.4 49 9.4 100 100 Calm 29.47 998 5 8 0.00 0.00
7:53 pm 19:53 Cloudy with Mist and Fog 49 9.4 49 9.4 100 100 Calm 29.45 997 5 8 0.00 0.00
8:06 pm 20:06 Cloudy with Light Rain 49 9.4 49 9.4 100 100 S 5 7 29.47 998 2 3 0.00 0.03
8:13 pm 20:13 Cloudy with Light Rain 49 9.4 49 9.4 100 100 S 5 7 29.47 998 2 3 0.00 0.03
8:53 pm 20:53 Cloudy with Mist and Fog 49 9.4 49 9.4 100 100 S 3 6 29.44 997 5 8 0.00 0.03
9:33 pm 21:33 Cloudy with Mist and Fog 49 9.4 49 9.4 100 100 Calm 29.44 997 3 5 0.01 0.25
9:50 pm 21:50 Cloudy with Mist and Fog 48 9 48 9 100 100 Calm 29.44 997 3 5 0.01 0.25
9:53 pm 21:53 Cloudy with Mist and Fog 49 9.4 49 9.4 100 100 Calm 29.42 996 3 5 0.01 0.25
10:12 pm 22:12 Cloudy with Light Rain 49 9.4 49 9.4 100 100 S 3 6 29.44 997 3 4 0.00 0.03
10:27 pm 22:27 Cloudy with Mist and Fog 49 9.4 49 9.4 100 100 Calm 29.44 997 1 2 0.00 0.03
10:37 pm 22:37 Cloudy with Light Rain 49 9.4 49 9.4 100 100 Calm 29.44 997 3 5 0.00 0.03
10:49 pm 22:49 Cloudy with Light Rain 48 9 48 9 100 100 Calm 29.41 996 2 3 0.01 0.25
10:53 pm 22:53 Cloudy with Light Rain 49 9.4 49 9.4 100 100 Calm 29.40 996 2 2 0.01 0.25
10:57 pm 22:57 Cloudy with Light Rain 49 9.4 49 9.4 100 100 Calm 29.41 996 2 3 0.00 0.03
11:19 pm 23:19 Cloudy with Light Rain 49 9.4 49 9.4 100 100 Calm 29.41 996 3 5 0.01 0.25
11:23 pm 23:23 Cloudy with Mist and Fog 49 9.4 49 9.4 100 100 Calm 29.41 996 3 4 0.01 0.25
11:30 pm 23:30 Cloudy with Mist and Fog 49 9.4 49 9.4 100 100 Calm 29.41 996 2 3 0.01 0.25
11:42 pm 23:42 Cloudy with Light Rain 49 9.4 49 9.4 100 100 Calm 29.38 995 3 4 0.01 0.25
11:53 pm 23:53 Cloudy with Light Rain 49 9.4 49 9.4 100 100 Calm 29.36 994 3 4 0.01 0.25

Powered by AerisWeather